STARLINK-32852, 62824

Orbit data source: Space-Track

STARLINK-32852, 62824 is a payload satellite owned by SpaceX/Seattle (US) in LEO that was launched on Fri, 24 Jan 2025 UTC via an FALCON 9 launch vehicle from the Air Force Western Test Range (AFWTR). Payload-class satellites include a variety of spacecraft equipped with specific instruments for various scientific and technological missions. These include communications satellites like Starlink; space stations such as the ISS; scientific satellites like the Hubble; Earth observation satellites from companies like Planet Labs, Umbra, and HawkEye 360; GPS; miniature CubeSats for education and research; and military/defense satellites.

Loading next visibility...
Identifier
62824, 2025-018U
Orbit
LEO
Country
Flag of USUS
Related business
Manufacturer
SpaceX/Seattle
Mission
Operational Commercial Communications
Bus & Motor
STARLINK V2M, Unknown motor
Mass
730 kg wet, ~700 kg dry
Launch date (UTC)
2025-01-24 (11 months ago)
Launch vehicle
FALCON 9
Launch site
Air Force Western Test Range (AFWTR)
Object type
Payload
Rocket body
Debris
Shape & HBR
Box + 2 Pan, 17.7 m
Radar Cross Section
33.884 m², Large (>1 m²)

Expand to show TLE details & history
Last TLE update: 21 hours ago

TLE from 21 hours ago
0 STARLINK-32852
1 62824U 25018U   25347.32059185  .00047160  00000-0  15930-2 0  9990
2 62824  53.1605 350.8617 0001525  84.2028 275.9147 15.30226532 49952
Epoch: 2025-12-13T07:41Z
TLE epoch observation values (Epoch: 2025-12-13T07:41:39.135Z)
Latitude
-0.00001°
Longitude
153.19908°
Altitude
475.928 km
Speed
7.629 km/s
True Right ascension
23h 23m 26s
True Declination
0° 00' 00"
Sunlit
Object was in daylight at epoch
Visualization orbit readout
Latitude
Unknown
Longitude
Unknown
Altitude
Unknown
Speed
Unknown
Apparent Right ascension
Unknown
Apparent Declination
Unknown
Sunlit
N/A
Visualization observer readout
Local Sidereal Time
02:48:59
Azimuth
Unknown
Elevation
Unknown
Doppler factor
Unknown
Orbital elements
Apogee altitude
476.437 km
Perigee altitude
474.347 km
Semi-major axis
6,853.529 km
Eccentricity
0.00015
Inclination
53.1605°
RAAN
350.8617°
Arg. of periapsis
84.2028°
True anomaly
275.89732°
Mean anomaly
275.9147°
Eccentric anomaly
275.90601°
Mean motion
3.82536 °/min
Orbital period
94.11 mins
BSTAR
0.001593
Loading maneuver chart data...
Computing Atmospheric mass density...
Loading historical data...
Loading historical data...
Loading historical data...
Loading historical data...
Loading historical data...
Loading historical data...
Loading historical data...

Documentation

Showing up to 5 results
|